SCP
0 0 0 0 0 0 0 0 0 0 0 0 0 0 0 0 0 0 0 2 1 1 1 0 1 0 0 0 0 0 0 0 0 0 0 0 0 0 0 0 0 0 0
1 0 0 0 0 0 0 0 0 0 0 0 0 0 0 0 0 1 0 0 1 1 1 0 0 0 0 0 0 0 0 0 0 0 0 0 0 0 0 0 0 0 0
1 1 0 0 0 0 0 0 0 0 0 0 0 0 0 1 1 1 1 0 0 1 0 0 0 1 1 0 0 0 0 0 0 0 0 0 0 0 0 0 0 0 0
1 2 1 0 0 0 0 0 0 0 0 0 1 1 1 1 1 2 1 1 1 1 1 0 0 1 1 0 0 0 0 0 0 0 0 0 0 0 0 0 0 0 0
2 1 1 0 1 1 0 0 0 0 0 2 1 1 2 1 2 2 2 2 1 0 0 1 0 0 1 1 0 0 0 0 0 0 0 0 0 0 0 0 0 0 0
1 2 1 2 1 1 0 0 0 1 1 1 1 2 2 2 3 3 3 2 1 1 1 2 1 1 0 1 0 0 0 0 0 0 0 0 0 0 0 0 0 0 0
1 2 1 1 1 0 0 1 1 2 1 2 2 2 2 4 4 2 3 3 1 1 1 2 2 1 1 0 0 1 0 0 0 0 0 0 0 0 0 0 0 0 0
1 1 1 1 1 1 1 2 2 2 2 2 3 2 1 3 7 4 2 2 1 1 2 2 2 1 0 1 1 1 0 0 0 1 0 0 0 0 0 0 0 0 0
-0 1 1 1 1 1 1 2 7 4 3 3 4 3 2 2 2 5 4 1 2 3 1 2 2 1 1 1 1 1 0 0 0 1 1 0 0 0 0 0 0 0 0
1 0 2 1 0 1 1 4 5 5 7 4 4 4 2 2 3 2 4 2 1 2 2 1 2 1 1 1 1 1 1 1 1 1 0 0 0 0 0 0 0 0 0
5 3 1 3 0 -0 1 3 7 7 5 4 3 5 3 2 4 4 2 3 2 1 2 2 1 2 1 1 1 1 0 0 0 0 0 0 0 0 0 0 0 0 0
5 6 5 4 2 3 1 6 7 10 6 8 3 4 3 3 3 4 1 0 2 2 1 1 2 1 1 1 1 1 0 0 0 0 0 0 0 0 0 0 0 0 0
3 6 5 7 6 4 4 5 8 11 13 7 5 3 3 3 3 2 1 2 2 2 2 1 2 1 1 1 1 1 0 0 0 0 0 0 0 0 0 0 0 0 0
1 3 9 6 6 5 5 7 10 12 13 8 6 4 2 3 4 3 2 2 1 1 2 1 1 1 1 1 1 0 0 0 0 0 0 0 0 0 0 0 0 0 0
1 1 7 6 5 5 8 9 10 10 9 7 4 4 2 4 7 2 3 1 1 1 1 2 2 1 1 1 0 0 0 0 0 0 0 0 0 0 0 0 0 0 0
4 5 4 5 7 7 9 11 9 10 7 5 3 3 3 3 5 2 3 1 1 1 0 1 1 2 1 0 0 0 0 0 0 0 0 0 0 0 0 0 0 0 0
2 2 3 3 2 4 5 7 8 6 6 5 3 3 2 4 2 1 2 1 1 1 0 1 1 1 1 0 0 0 0 0 0 0 0 0 0 0 0 0 0 0 0
2 2 1 1 2 2 5 5 4 4 4 3 2 3 3 3 2 3 2 2 2 1 0 2 1 1 0 1 0 0 0 0 0 0 0 0 0 0 0 0 0 0 0
2 2 1 1 1 2 3 3 2 3 4 2 2 2 3 2 2 2 1 1 1 1 1 0 1 0 0 0 0 0 0 0 0 0 0 0 0 0 0 0 0 0 0
2 2 1 1 1 1 2 2 2 3 3 3 4 3 1 1 2 1 1 2 2 1 1 1 1 0 0 0 0 0 0 0 0 0 0 0 0 0 0 0 0 0 0
2 1 1 1 1 2 2 2 2 3 3 4 4 2 2 2 1 1 1 2 1 1 1 1 1 0 0 0 0 0 0 0 0 0 0 0 0 0 0 0 0 0 0
2 1 1 1 2 2 1 2 2 4 3 3 3 2 2 1 0 0 0 0 1 1 1 1 1 0 0 0 0 0 0 0 0 0 0 0 0 0 0 0 0 0 0
2 0 2 2 2 2 1 2 3 3 3 3 3 2 1 1 1 1 0 0 0 0 0 1 1 0 0 0 0 0 0 0 0 0 0 0 0 0 0 0 0 0 0
2 1 2 2 3 5 0 2 3 4 3 2 2 1 1 1 0 0 0 0 0 0 0 0 1 1 0 0 0 0 0 0 0 0 0 0 0 0 0 0 0 -0 0
2 2 2 2 3 2 0 1 1 3 2 1 1 0 0 1 0 0 0 0 0 1 0 0 0 0 0 0 0 0 0 0 0 0 0 0 0 0 0 0 0 -0 0
2 2 2 3 3 2 0 1 1 2 2 1 1 0 0 0 0 0 0 1 0 0 0 0 0 0 0 0 0 0 0 0 0 0 0 0 0 0 0 0 0 0 0
Wind_Speed_500mb
41 37 33 29 26 20 21 22 22 26 27 31 32 36 37 36 36 34 31 45 48 47 44 41 38 35 33 30 31 33 30 25 25 26 30 34 34 36 34 35 35 34 35
42 37 37 31 30 28 23 24 23 28 28 29 30 36 39 39 36 38 34 35 46 42 40 47 43 40 35 31 27 28 32 30 34 30 31 34 35 36 37 35 38 35 36
50 51 35 33 29 30 32 30 33 31 33 32 35 36 37 40 40 41 42 33 37 42 38 47 46 43 38 35 29 31 31 34 32 30 30 34 36 37 37 36 39 38 36
53 52 47 40 37 37 32 34 12 21 34 35 30 33 33 36 38 42 39 35 30 32 38 34 41 43 41 38 32 33 35 34 32 33 30 34 37 37 37 37 38 39 38
62 59 53 47 51 49 42 45 25 26 38 40 38 32 33 34 39 37 40 38 37 35 27 37 31 34 41 40 36 36 38 37 33 32 30 34 37 36 36 37 37 39 38
69 65 53 61 68 59 51 37 29 41 42 43 30 33 35 37 39 38 42 40 36 32 28 30 37 35 37 40 43 41 40 39 37 35 32 32 37 37 37 36 36 38 38
69 80 74 76 71 68 47 34 43 40 45 47 30 36 38 48 49 41 39 41 38 33 33 33 38 32 37 32 35 36 41 42 42 38 36 33 34 39 40 38 37 38 38
68 79 84 80 85 75 71 58 54 40 43 31 31 29 36 37 45 45 32 36 39 36 35 40 37 37 35 39 33 38 37 42 44 42 39 37 32 39 42 41 39 37 38
65 69 75 73 69 82 79 69 68 58 46 33 38 33 24 34 29 22 28 26 36 38 32 35 35 36 35 33 36 39 38 40 43 44 40 39 35 38 44 44 41 37 37
96 55 43 38 68 80 76 58 63 57 55 44 37 48 53 47 32 30 18 24 30 34 33 28 27 34 33 37 37 38 46 38 42 43 40 41 36 36 44 44 40 37 35
67 100 89 96 86 93 77 64 66 63 46 42 44 40 34 36 40 30 40 27 25 26 29 33 27 31 31 33 31 37 38 40 45 43 43 42 37 34 41 44 39 36 33
54 68 70 70 86 97 84 78 66 61 55 54 50 42 42 35 34 30 33 39 37 27 25 28 31 29 28 29 34 38 44 38 37 44 43 42 39 36 38 41 38 35 29
53 54 60 66 86 90 76 66 62 61 61 58 59 46 44 45 38 32 34 33 20 25 31 24 32 24 24 28 32 34 40 41 43 39 45 45 40 36 39 39 36 31 28
50 53 61 71 75 73 59 64 54 58 60 54 57 51 43 42 37 35 38 33 33 33 27 32 18 24 22 26 31 36 38 33 32 32 36 42 37 35 36 38 31 30 30
58 56 49 60 66 62 64 56 57 61 53 53 51 46 44 37 42 32 38 32 34 38 34 24 23 23 19 18 30 30 22 29 24 28 32 33 33 35 34 35 32 31 33
61 54 57 65 68 62 60 63 60 58 56 53 43 42 41 35 37 35 38 30 31 31 30 12 18 14 19 22 30 29 28 29 26 32 33 35 33 35 32 32 33 35 37
64 66 62 55 51 48 60 66 64 55 56 52 42 46 39 36 33 31 39 31 32 28 29 17 9 22 32 26 25 25 30 23 25 31 35 35 33 33 32 33 34 35 36
56 55 53 56 59 54 63 69 67 50 50 45 47 42 39 35 42 40 37 32 32 30 30 20 20 25 15 22 25 25 23 21 24 30 30 35 36 34 34 34 33 37 34
52 51 51 55 64 64 66 67 59 52 49 44 44 40 38 38 41 45 38 30 30 29 26 26 19 20 21 18 19 20 20 14 30 23 27 27 32 34 35 35 34 39 48
50 54 56 55 58 61 61 57 53 51 50 46 45 40 35 39 45 41 31 34 29 28 32 26 21 20 14 9 9 7 16 20 17 26 31 31 30 32 33 33 36 43 53
50 56 54 54 61 62 62 60 56 56 50 46 43 39 39 41 40 31 30 33 33 33 32 31 23 23 15 18 13 10 13 18 19 22 25 24 27 27 30 32 35 43 47
50 60 60 62 63 64 62 63 60 55 49 47 40 39 38 41 40 45 43 37 38 40 33 32 30 25 24 23 17 13 19 20 22 26 24 24 18 26 27 34 36 43 48
55 66 67 66 67 70 64 68 66 50 45 42 42 39 35 29 41 39 39 41 41 35 34 33 31 27 25 24 28 27 17 18 17 24 22 20 23 20 27 33 40 41 41
61 66 71 71 68 70 66 71 70 41 40 40 40 35 31 29 30 28 28 37 38 36 39 37 36 30 27 20 32 26 17 23 20 16 28 19 23 25 28 26 41 40 40
63 70 75 71 69 71 72 65 59 40 38 36 31 29 29 32 28 35 31 34 32 36 37 40 38 31 29 21 29 32 29 23 16 21 26 18 30 24 20 23 36 40 39
67 72 76 72 71 74 67 64 57 37 41 34 31 37 37 30 36 31 33 32 31 39 36 40 37 32 30 24 30 34 26 24 17 17 25 21 29 31 22 27 29 41 42
Wind_Direction_500mb
216 225 223 224 234 247 249 257 254 249 260 264 265 269 269 264 262 259 251 269 270 271 254 248 244 245 248 259 254 252 260 266 273 277 252 236 233 236 235 234 228 221 227
223 225 236 231 230 234 236 247 259 255 259 267 266 271 267 264 263 261 261 265 273 278 261 247 244 243 245 256 253 256 256 262 276 269 253 239 233 234 235 232 228 225 230
219 232 234 237 235 234 234 235 265 255 270 270 277 272 264 270 264 261 261 255 265 277 281 252 244 243 244 256 255 251 255 266 272 262 256 240 235 233 234 232 226 226 235
238 241 239 236 238 229 245 256 258 266 298 278 270 271 268 271 267 270 264 260 257 257 275 271 253 243 245 255 258 251 255 264 264 257 255 242 236 233 232 231 228 228 232
250 243 251 251 242 230 246 249 253 285 263 270 266 268 268 266 266 267 263 261 258 244 246 269 264 249 247 254 255 256 258 257 264 255 253 245 235 231 229 229 228 230 232
253 247 249 246 262 252 251 250 237 269 261 271 260 265 269 265 264 263 266 261 256 254 251 252 260 257 258 262 264 258 252 256 257 254 252 247 234 230 229 227 225 228 230
260 255 254 254 256 253 245 240 241 256 255 269 261 265 267 263 274 259 254 264 257 254 251 249 245 253 266 267 272 264 258 257 254 249 247 247 238 229 229 228 227 228 230
268 251 255 250 254 252 243 241 258 246 258 259 248 263 269 271 252 256 256 249 254 246 249 251 248 267 257 255 272 267 264 255 252 247 243 244 243 231 228 228 228 229 233
271 267 253 259 251 254 250 239 244 253 247 244 241 233 265 257 294 247 242 243 245 253 249 254 257 272 259 255 262 271 271 261 251 246 242 242 242 236 227 227 228 231 235
258 263 249 276 268 254 249 238 243 256 261 229 235 247 252 256 282 278 244 245 236 240 237 242 265 269 258 260 263 256 263 252 245 246 240 238 239 240 227 225 228 231 237
248 260 256 264 271 262 246 230 245 250 242 240 228 236 256 256 260 265 275 259 234 243 242 253 254 261 265 253 259 269 267 259 249 249 246 237 240 240 226 223 225 230 239
253 248 242 231 238 241 239 236 237 248 258 243 232 225 236 242 248 246 262 271 252 247 245 237 258 263 257 265 269 264 264 261 256 246 241 234 241 241 225 221 226 230 236
248 254 263 244 234 239 232 231 242 237 244 237 237 237 233 239 247 254 257 252 247 263 252 233 250 266 257 265 269 268 270 260 251 246 239 232 236 237 218 218 227 230 226
253 247 255 252 233 233 244 240 231 232 237 234 236 242 226 237 239 244 254 251 257 258 229 260 234 233 253 271 263 260 264 268 252 243 231 227 229 225 219 218 221 226 223
249 238 240 249 252 238 235 238 227 237 231 231 240 240 239 229 242 238 244 234 241 260 259 243 225 229 235 253 259 261 268 266 264 233 223 218 223 215 216 214 216 222 220
246 245 250 254 247 236 235 236 232 227 226 231 231 233 229 220 233 240 241 232 237 258 269 195 212 211 237 254 262 259 247 252 257 228 223 221 221 216 212 213 213 219 217
262 259 253 251 256 240 228 230 224 219 224 225 225 225 222 217 221 228 233 219 235 237 251 246 223 253 260 265 267 267 246 245 241 224 221 223 221 216 213 215 218 219 214
265 263 257 246 235 229 225 226 225 208 216 214 215 215 223 221 217 217 216 224 237 235 244 260 244 250 251 263 262 264 252 239 221 217 220 216 218 215 214 219 220 216 207
263 255 246 243 231 231 224 225 216 203 212 214 215 212 216 217 220 222 205 224 230 235 246 246 243 246 249 268 273 258 226 208 209 205 208 202 203 208 215 222 218 209 198
260 254 245 238 234 226 216 212 206 202 210 212 212 215 213 218 217 215 210 219 221 231 228 228 230 234 249 245 262 225 193 183 180 192 194 200 205 211 217 217 211 198 200
254 252 242 237 226 216 209 206 203 202 205 205 207 209 212 213 217 212 215 221 223 228 227 227 229 227 220 216 204 203 188 197 192 195 195 199 207 212 212 206 207 207 201
249 246 235 228 216 209 209 208 199 198 200 202 207 207 207 212 207 218 220 217 220 218 222 225 222 226 236 206 206 214 201 201 197 200 195 193 206 209 203 198 202 204 203
242 239 229 221 211 207 208 207 197 195 195 201 203 198 196 208 225 223 227 228 228 231 232 226 231 216 229 223 194 199 207 192 214 220 184 199 210 208 213 208 203 202 194
238 230 222 213 206 201 206 207 197 189 188 196 197 195 196 213 231 208 221 226 231 237 234 228 229 225 217 237 203 201 194 202 208 229 181 198 201 193 203 221 214 193 198
231 222 214 208 201 200 202 202 189 186 183 189 185 198 207 208 219 214 215 227 222 225 223 223 230 229 228 228 205 189 197 189 203 202 200 211 196 195 204 197 184 197 207
223 215 208 201 195 204 192 188 171 178 175 179 188 205 208 210 224 230 212 227 227 231 230 226 224 223 224 231 201 193 191 187 197 191 196 208 202 187 191 205 208 210 204
Wind_Speed_850mb
41 37 33 29 26 20 21 22 22 26 27 31 32 36 37 36 36 34 31 45 48 47 44 41 38 35 33 30 31 33 30 25 25 26 30 34 34 36 34 35 35 34 35
42 37 37 31 30 28 23 24 23 28 28 29 30 36 39 39 36 38 34 35 46 42 40 47 43 40 35 31 27 28 32 30 34 30 31 34 35 36 37 35 38 35 36
50 51 35 33 29 30 32 30 33 31 33 32 35 36 37 40 40 41 42 33 37 42 38 47 46 43 38 35 29 31 31 34 32 30 30 34 36 37 37 36 39 38 36
53 52 47 40 37 37 32 34 12 21 34 35 30 33 33 36 38 42 39 35 30 32 38 34 41 43 41 38 32 33 35 34 32 33 30 34 37 37 37 37 38 39 38
62 59 53 47 51 49 42 45 25 26 38 40 38 32 33 34 39 37 40 38 37 35 27 37 31 34 41 40 36 36 38 37 33 32 30 34 37 36 36 37 37 39 38
69 65 53 61 68 59 51 37 29 41 42 43 30 33 35 37 39 38 42 40 36 32 28 30 37 35 37 40 43 41 40 39 37 35 32 32 37 37 37 36 36 38 38
69 80 74 76 71 68 47 34 43 40 45 47 30 36 38 48 49 41 39 41 38 33 33 33 38 32 37 32 35 36 41 42 42 38 36 33 34 39 40 38 37 38 38
68 79 84 80 85 75 71 58 54 40 43 31 31 29 36 37 45 45 32 36 39 36 35 40 37 37 35 39 33 38 37 42 44 42 39 37 32 39 42 41 39 37 38
65 69 75 73 69 82 79 69 68 58 46 33 38 33 24 34 29 22 28 26 36 38 32 35 35 36 35 33 36 39 38 40 43 44 40 39 35 38 44 44 41 37 37
96 55 43 38 68 80 76 58 63 57 55 44 37 48 53 47 32 30 18 24 30 34 33 28 27 34 33 37 37 38 46 38 42 43 40 41 36 36 44 44 40 37 35
67 100 89 96 86 93 77 64 66 63 46 42 44 40 34 36 40 30 40 27 25 26 29 33 27 31 31 33 31 37 38 40 45 43 43 42 37 34 41 44 39 36 33
54 68 70 70 86 97 84 78 66 61 55 54 50 42 42 35 34 30 33 39 37 27 25 28 31 29 28 29 34 38 44 38 37 44 43 42 39 36 38 41 38 35 29
53 54 60 66 86 90 76 66 62 61 61 58 59 46 44 45 38 32 34 33 20 25 31 24 32 24 24 28 32 34 40 41 43 39 45 45 40 36 39 39 36 31 28
50 53 61 71 75 73 59 64 54 58 60 54 57 51 43 42 37 35 38 33 33 33 27 32 18 24 22 26 31 36 38 33 32 32 36 42 37 35 36 38 31 30 30
58 56 49 60 66 62 64 56 57 61 53 53 51 46 44 37 42 32 38 32 34 38 34 24 23 23 19 18 30 30 22 29 24 28 32 33 33 35 34 35 32 31 33
61 54 57 65 68 62 60 63 60 58 56 53 43 42 41 35 37 35 38 30 31 31 30 12 18 14 19 22 30 29 28 29 26 32 33 35 33 35 32 32 33 35 37
64 66 62 55 51 48 60 66 64 55 56 52 42 46 39 36 33 31 39 31 32 28 29 17 9 22 32 26 25 25 30 23 25 31 35 35 33 33 32 33 34 35 36
56 55 53 56 59 54 63 69 67 50 50 45 47 42 39 35 42 40 37 32 32 30 30 20 20 25 15 22 25 25 23 21 24 30 30 35 36 34 34 34 33 37 34
52 51 51 55 64 64 66 67 59 52 49 44 44 40 38 38 41 45 38 30 30 29 26 26 19 20 21 18 19 20 20 14 30 23 27 27 32 34 35 35 34 39 48
50 54 56 55 58 61 61 57 53 51 50 46 45 40 35 39 45 41 31 34 29 28 32 26 21 20 14 9 9 7 16 20 17 26 31 31 30 32 33 33 36 43 53
50 56 54 54 61 62 62 60 56 56 50 46 43 39 39 41 40 31 30 33 33 33 32 31 23 23 15 18 13 10 13 18 19 22 25 24 27 27 30 32 35 43 47
50 60 60 62 63 64 62 63 60 55 49 47 40 39 38 41 40 45 43 37 38 40 33 32 30 25 24 23 17 13 19 20 22 26 24 24 18 26 27 34 36 43 48
55 66 67 66 67 70 64 68 66 50 45 42 42 39 35 29 41 39 39 41 41 35 34 33 31 27 25 24 28 27 17 18 17 24 22 20 23 20 27 33 40 41 41
61 66 71 71 68 70 66 71 70 41 40 40 40 35 31 29 30 28 28 37 38 36 39 37 36 30 27 20 32 26 17 23 20 16 28 19 23 25 28 26 41 40 40
63 70 75 71 69 71 72 65 59 40 38 36 31 29 29 32 28 35 31 34 32 36 37 40 38 31 29 21 29 32 29 23 16 21 26 18 30 24 20 23 36 40 39
67 72 76 72 71 74 67 64 57 37 41 34 31 37 37 30 36 31 33 32 31 39 36 40 37 32 30 24 30 34 26 24 17 17 25 21 29 31 22 27 29 41 42
Wind_Direction_850mb
216 225 223 224 234 247 249 257 254 249 260 264 265 269 269 264 262 259 251 269 270 271 254 248 244 245 248 259 254 252 260 266 273 277 252 236 233 236 235 234 228 221 227
223 225 236 231 230 234 236 247 259 255 259 267 266 271 267 264 263 261 261 265 273 278 261 247 244 243 245 256 253 256 256 262 276 269 253 239 233 234 235 232 228 225 230
219 232 234 237 235 234 234 235 265 255 270 270 277 272 264 270 264 261 261 255 265 277 281 252 244 243 244 256 255 251 255 266 272 262 256 240 235 233 234 232 226 226 235
238 241 239 236 238 229 245 256 258 266 298 278 270 271 268 271 267 270 264 260 257 257 275 271 253 243 245 255 258 251 255 264 264 257 255 242 236 233 232 231 228 228 232
250 243 251 251 242 230 246 249 253 285 263 270 266 268 268 266 266 267 263 261 258 244 246 269 264 249 247 254 255 256 258 257 264 255 253 245 235 231 229 229 228 230 232
253 247 249 246 262 252 251 250 237 269 261 271 260 265 269 265 264 263 266 261 256 254 251 252 260 257 258 262 264 258 252 256 257 254 252 247 234 230 229 227 225 228 230
260 255 254 254 256 253 245 240 241 256 255 269 261 265 267 263 274 259 254 264 257 254 251 249 245 253 266 267 272 264 258 257 254 249 247 247 238 229 229 228 227 228 230
268 251 255 250 254 252 243 241 258 246 258 259 248 263 269 271 252 256 256 249 254 246 249 251 248 267 257 255 272 267 264 255 252 247 243 244 243 231 228 228 228 229 233
271 267 253 259 251 254 250 239 244 253 247 244 241 233 265 257 294 247 242 243 245 253 249 254 257 272 259 255 262 271 271 261 251 246 242 242 242 236 227 227 228 231 235
258 263 249 276 268 254 249 238 243 256 261 229 235 247 252 256 282 278 244 245 236 240 237 242 265 269 258 260 263 256 263 252 245 246 240 238 239 240 227 225 228 231 237
248 260 256 264 271 262 246 230 245 250 242 240 228 236 256 256 260 265 275 259 234 243 242 253 254 261 265 253 259 269 267 259 249 249 246 237 240 240 226 223 225 230 239
253 248 242 231 238 241 239 236 237 248 258 243 232 225 236 242 248 246 262 271 252 247 245 237 258 263 257 265 269 264 264 261 256 246 241 234 241 241 225 221 226 230 236
248 254 263 244 234 239 232 231 242 237 244 237 237 237 233 239 247 254 257 252 247 263 252 233 250 266 257 265 269 268 270 260 251 246 239 232 236 237 218 218 227 230 226
253 247 255 252 233 233 244 240 231 232 237 234 236 242 226 237 239 244 254 251 257 258 229 260 234 233 253 271 263 260 264 268 252 243 231 227 229 225 219 218 221 226 223
249 238 240 249 252 238 235 238 227 237 231 231 240 240 239 229 242 238 244 234 241 260 259 243 225 229 235 253 259 261 268 266 264 233 223 218 223 215 216 214 216 222 220
246 245 250 254 247 236 235 236 232 227 226 231 231 233 229 220 233 240 241 232 237 258 269 195 212 211 237 254 262 259 247 252 257 228 223 221 221 216 212 213 213 219 217
262 259 253 251 256 240 228 230 224 219 224 225 225 225 222 217 221 228 233 219 235 237 251 246 223 253 260 265 267 267 246 245 241 224 221 223 221 216 213 215 218 219 214
265 263 257 246 235 229 225 226 225 208 216 214 215 215 223 221 217 217 216 224 237 235 244 260 244 250 251 263 262 264 252 239 221 217 220 216 218 215 214 219 220 216 207
263 255 246 243 231 231 224 225 216 203 212 214 215 212 216 217 220 222 205 224 230 235 246 246 243 246 249 268 273 258 226 208 209 205 208 202 203 208 215 222 218 209 198
260 254 245 238 234 226 216 212 206 202 210 212 212 215 213 218 217 215 210 219 221 231 228 228 230 234 249 245 262 225 193 183 180 192 194 200 205 211 217 217 211 198 200
254 252 242 237 226 216 209 206 203 202 205 205 207 209 212 213 217 212 215 221 223 228 227 227 229 227 220 216 204 203 188 197 192 195 195 199 207 212 212 206 207 207 201
249 246 235 228 216 209 209 208 199 198 200 202 207 207 207 212 207 218 220 217 220 218 222 225 222 226 236 206 206 214 201 201 197 200 195 193 206 209 203 198 202 204 203
242 239 229 221 211 207 208 207 197 195 195 201 203 198 196 208 225 223 227 228 228 231 232 226 231 216 229 223 194 199 207 192 214 220 184 199 210 208 213 208 203 202 194
238 230 222 213 206 201 206 207 197 189 188 196 197 195 196 213 231 208 221 226 231 237 234 228 229 225 217 237 203 201 194 202 208 229 181 198 201 193 203 221 214 193 198
231 222 214 208 201 200 202 202 189 186 183 189 185 198 207 208 219 214 215 227 222 225 223 223 230 229 228 228 205 189 197 189 203 202 200 211 196 195 204 197 184 197 207
223 215 208 201 195 204 192 188 171 178 175 179 188 205 208 210 224 230 212 227 227 231 230 226 224 223 224 231 201 193 191 187 197 191 196 208 202 187 191 205 208 210 204